Location: Burland Observatory
(39.4088°N, 105.4217°W)
Time: 01:18:50
(UTC-07:00)

SR - Pass Details

Date: 15 December 2019
Orbit: 574 x 882 km, 66.7° (Epoch: 24 January)

Event Time Altitude Azimuth Distance (km) Brightness Sun altitude
Rises 07:09:02 0° 178° (S) 3,200 ? -1.8°
Reaches altitude 10° 07:11:35 10° 168° (SSE) 2,328 ? -1.3°
Maximum altitude 07:16:15 31° 108° (ESE) 1,413 ? -0.5°
Drops below altitude 10° 07:21:13 10° 48° (NE) 2,487 ? 0.3°
Sets 07:24:01 0° 39° (NE) 3,455 ? 0.7°
